Date_Time,Julian_Date,Latitude,Longitude,Instrument_Depth,Water_Temperature
(yyyy-mm-dd hh:mn:ss UTC),(JD),(+ deg. North),(+ deg. East),(m),(deg. C)
1988-07-22 05:00:00 UTC,2447364.708333,28.6750,-92.1000,0022,25.6000
1988-07-22 05:30:00 UTC,2447364.729167,28.6750,-92.1000,0022,25.5200
1988-07-22 06:00:00 UTC,2447364.750000,28.6750,-92.1000,0022,25.4810
1988-07-22 06:30:00 UTC,2447364.770833,28.6750,-92.1000,0022,25.5010
1988-07-22 07:00:00 UTC,2447364.791667,28.6750,-92.1000,0022,25.4280
1988-07-22 07:30:00 UTC,2447364.812500,28.6750,-92.1000,0022,25.7260
1988-07-22 08:00:00 UTC,2447364.833333,28.6750,-92.1000,0022,26.0540
1988-07-22 08:30:00 UTC,2447364.854167,28.6750,-92.1000,0022,26.0650
1988-07-22 09:00:00 UTC,2447364.875000,28.6750,-92.1000,0022,26.5920
1988-07-22 09:30:00 UTC,2447364.895833,28.6750,-92.1000,0022,26.7660
1988-07-22 10:00:00 UTC,2447364.916667,28.6750,-92.1000,0022,26.7060
1988-07-22 10:30:00 UTC,2447364.937500,28.6750,-92.1000,0022,26.8620
1988-07-22 11:00:00 UTC,2447364.958333,28.6750,-92.1000,0022,26.9410
1988-07-22 11:30:00 UTC,2447364.979167,28.6750,-92.1000,0022,27.1340
1988-07-22 12:00:00 UTC,2447365.000000,28.6750,-92.1000,0022,27.0480
1988-07-22 12:30:00 UTC,2447365.020833,28.6750,-92.1000,0022,26.7820
1988-07-22 13:00:00 UTC,2447365.041667,28.6750,-92.1000,0022,26.6640
1988-07-22 13:30:00 UTC,2447365.062500,28.6750,-92.1000,0022,26.6610
1988-07-22 14:00:00 UTC,2447365.083333,28.6750,-92.1000,0022,26.5290
1988-07-22 14:30:00 UTC,2447365.104167,28.6750,-92.1000,0022,26.5070
1988-07-22 15:00:00 UTC,2447365.125000,28.6750,-92.1000,0022,26.5010
1988-07-22 15:30:00 UTC,2447365.145833,28.6750,-92.1000,0022,26.5060
1988-07-22 16:00:00 UTC,2447365.166667,28.6750,-92.1000,0022,26.4490
1988-07-22 16:30:00 UTC,2447365.187500,28.6750,-92.1000,0022,26.4790
1988-07-22 17:00:00 UTC,2447365.208333,28.6750,-92.1000,0022,26.4260
1988-07-22 17:30:00 UTC,2447365.229167,28.6750,-92.1000,0022,26.4190
1988-07-22 18:00:00 UTC,2447365.250000,28.6750,-92.1000,0022,26.3940
1988-07-22 18:30:00 UTC,2447365.270833,28.6750,-92.1000,0022,26.3340
1988-07-22 19:00:00 UTC,2447365.291667,28.6750,-92.1000,0022,26.3660
1988-07-22 19:30:00 UTC,2447365.312500,28.6750,-92.1000,0022,26.5010
1988-07-22 20:00:00 UTC,2447365.333333,28.6750,-92.1000,0022,26.4180
1988-07-22 20:30:00 UTC,2447365.354167,28.6750,-92.1000,0022,26.7540
1988-07-22 21:00:00 UTC,2447365.375000,28.6750,-92.1000,0022,25.5070
1988-07-22 21:30:00 UTC,2447365.395833,28.6750,-92.1000,0022,25.5550
1988-07-22 22:00:00 UTC,2447365.416667,28.6750,-92.1000,0022,25.4720
1988-07-22 22:30:00 UTC,2447365.437500,28.6750,-92.1000,0022,25.4650
1988-07-22 23:00:00 UTC,2447365.458333,28.6750,-92.1000,0022,25.5780
1988-07-22 23:30:00 UTC,2447365.479167,28.6750,-92.1000,0022,25.6790
1988-07-23 00:00:00 UTC,2447365.500000,28.6750,-92.1000,0022,25.5620
1988-07-23 00:30:00 UTC,2447365.520833,28.6750,-92.1000,0022,25.5600
1988-07-23 01:00:00 UTC,2447365.541667,28.6750,-92.1000,0022,25.5200
1988-07-23 01:30:00 UTC,2447365.562500,28.6750,-92.1000,0022,25.3660
1988-07-23 02:00:00 UTC,2447365.583333,28.6750,-92.1000,0022,25.2020
1988-07-23 02:30:00 UTC,2447365.604167,28.6750,-92.1000,0022,25.2960
1988-07-23 03:00:00 UTC,2447365.625000,28.6750,-92.1000,0022,25.3910
1988-07-23 03:30:00 UTC,2447365.645833,28.6750,-92.1000,0022,25.2770
1988-07-23 04:00:00 UTC,2447365.666667,28.6750,-92.1000,0022,25.2040
1988-07-23 04:30:00 UTC,2447365.687500,28.6750,-92.1000,0022,25.1710
1988-07-23 05:00:00 UTC,2447365.708333,28.6750,-92.1000,0022,25.0800
1988-07-23 05:30:00 UTC,2447365.729167,28.6750,-92.1000,0022,25.1210
1988-07-23 06:00:00 UTC,2447365.750000,28.6750,-92.1000,0022,25.4190
1988-07-23 06:30:00 UTC,2447365.770833,28.6750,-92.1000,0022,25.5580
1988-07-23 07:00:00 UTC,2447365.791667,28.6750,-92.1000,0022,25.6560
1988-07-23 07:30:00 UTC,2447365.812500,28.6750,-92.1000,0022,25.6410
1988-07-23 08:00:00 UTC,2447365.833333,28.6750,-92.1000,0022,25.6760
1988-07-23 08:30:00 UTC,2447365.854167,28.6750,-92.1000,0022,25.6960
1988-07-23 09:00:00 UTC,2447365.875000,28.6750,-92.1000,0022,25.6120
1988-07-23 09:30:00 UTC,2447365.895833,28.6750,-92.1000,0022,25.6610
1988-07-23 10:00:00 UTC,2447365.916667,28.6750,-92.1000,0022,25.8790
1988-07-23 10:30:00 UTC,2447365.937500,28.6750,-92.1000,0022,25.7450
1988-07-23 11:00:00 UTC,2447365.958333,28.6750,-92.1000,0022,25.5910
1988-07-23 11:30:00 UTC,2447365.979167,28.6750,-92.1000,0022,25.3890
1988-07-23 12:00:00 UTC,2447366.000000,28.6750,-92.1000,0022,25.5010
1988-07-23 12:30:00 UTC,2447366.020833,28.6750,-92.1000,0022,25.2360
1988-07-23 13:00:00 UTC,2447366.041667,28.6750,-92.1000,0022,25.1650
1988-07-23 13:30:00 UTC,2447366.062500,28.6750,-92.1000,0022,25.2230
1988-07-23 14:00:00 UTC,2447366.083333,28.6750,-92.1000,0022,25.3810
1988-07-23 14:30:00 UTC,2447366.104167,28.6750,-92.1000,0022,25.6470
1988-07-23 15:00:00 UTC,2447366.125000,28.6750,-92.1000,0022,26.3350
1988-07-23 15:30:00 UTC,2447366.145833,28.6750,-92.1000,0022,25.5210
1988-07-23 16:00:00 UTC,2447366.166667,28.6750,-92.1000,0022,25.4900
1988-07-23 16:30:00 UTC,2447366.187500,28.6750,-92.1000,0022,25.9200
1988-07-23 17:00:00 UTC,2447366.208333,28.6750,-92.1000,0022,25.7660
1988-07-23 17:30:00 UTC,2447366.229167,28.6750,-92.1000,0022,25.8480
1988-07-23 18:00:00 UTC,2447366.250000,28.6750,-92.1000,0022,26.2150
1988-07-23 18:30:00 UTC,2447366.270833,28.6750,-92.1000,0022,25.9350
1988-07-23 19:00:00 UTC,2447366.291667,28.6750,-92.1000,0022,26.0080
1988-07-23 19:30:00 UTC,2447366.312500,28.6750,-92.1000,0022,26.0200
1988-07-23 20:00:00 UTC,2447366.333333,28.6750,-92.1000,0022,25.9230
1988-07-23 20:30:00 UTC,2447366.354167,28.6750,-92.1000,0022,26.1110
1988-07-23 21:00:00 UTC,2447366.375000,28.6750,-92.1000,0022,26.2890
1988-07-23 21:30:00 UTC,2447366.395833,28.6750,-92.1000,0022,26.5340
1988-07-23 22:00:00 UTC,2447366.416667,28.6750,-92.1000,0022,26.5900
1988-07-23 22:30:00 UTC,2447366.437500,28.6750,-92.1000,0022,26.4870
1988-07-23 23:00:00 UTC,2447366.458333,28.6750,-92.1000,0022,26.3740
1988-07-23 23:30:00 UTC,2447366.479167,28.6750,-92.1000,0022,26.3310
1988-07-24 00:00:00 UTC,2447366.500000,28.6750,-92.1000,0022,26.5090
1988-07-24 00:30:00 UTC,2447366.520833,28.6750,-92.1000,0022,26.4420
1988-07-24 01:00:00 UTC,2447366.541667,28.6750,-92.1000,0022,26.3830
1988-07-24 01:30:00 UTC,2447366.562500,28.6750,-92.1000,0022,26.4250
1988-07-24 02:00:00 UTC,2447366.583333,28.6750,-92.1000,0022,26.6430
1988-07-24 02:30:00 UTC,2447366.604167,28.6750,-92.1000,0022,26.2010
1988-07-24 03:00:00 UTC,2447366.625000,28.6750,-92.1000,0022,25.3960
1988-07-24 03:30:00 UTC,2447366.645833,28.6750,-92.1000,0022,25.3760
1988-07-24 04:00:00 UTC,2447366.666667,28.6750,-92.1000,0022,25.1930
1988-07-24 04:30:00 UTC,2447366.687500,28.6750,-92.1000,0022,25.5330
1988-07-24 05:00:00 UTC,2447366.708333,28.6750,-92.1000,0022,25.4020
1988-07-24 05:30:00 UTC,2447366.729167,28.6750,-92.1000,0022,25.0040
1988-07-24 06:00:00 UTC,2447366.750000,28.6750,-92.1000,0022,24.6630
1988-07-24 06:30:00 UTC,2447366.770833,28.6750,-92.1000,0022,24.8380
1988-07-24 07:00:00 UTC,2447366.791667,28.6750,-92.1000,0022,25.0910
1988-07-24 07:30:00 UTC,2447366.812500,28.6750,-92.1000,0022,25.6080
1988-07-24 08:00:00 UTC,2447366.833333,28.6750,-92.1000,0022,25.8050
1988-07-24 08:30:00 UTC,2447366.854167,28.6750,-92.1000,0022,25.9880
1988-07-24 09:00:00 UTC,2447366.875000,28.6750,-92.1000,0022,26.0820
1988-07-24 09:30:00 UTC,2447366.895833,28.6750,-92.1000,0022,25.7700
1988-07-24 10:00:00 UTC,2447366.916667,28.6750,-92.1000,0022,25.8910
1988-07-24 10:30:00 UTC,2447366.937500,28.6750,-92.1000,0022,25.7230
1988-07-24 11:00:00 UTC,2447366.958333,28.6750,-92.1000,0022,25.5300
1988-07-24 11:30:00 UTC,2447366.979167,28.6750,-92.1000,0022,25.6100
1988-07-24 12:00:00 UTC,2447367.000000,28.6750,-92.1000,0022,25.7180
1988-07-24 12:30:00 UTC,2447367.020833,28.6750,-92.1000,0022,25.8630
1988-07-24 13:00:00 UTC,2447367.041667,28.6750,-92.1000,0022,25.8920
1988-07-24 13:30:00 UTC,2447367.062500,28.6750,-92.1000,0022,25.9020
1988-07-24 14:00:00 UTC,2447367.083333,28.6750,-92.1000,0022,25.9600
1988-07-24 14:30:00 UTC,2447367.104167,28.6750,-92.1000,0022,26.1200
1988-07-24 15:00:00 UTC,2447367.125000,28.6750,-92.1000,0022,26.3230
1988-07-24 15:30:00 UTC,2447367.145833,28.6750,-92.1000,0022,26.1730
1988-07-24 16:00:00 UTC,2447367.166667,28.6750,-92.1000,0022,26.2750
1988-07-24 16:30:00 UTC,2447367.187500,28.6750,-92.1000,0022,26.4870
1988-07-24 17:00:00 UTC,2447367.208333,28.6750,-92.1000,0022,26.8200
1988-07-24 17:30:00 UTC,2447367.229167,28.6750,-92.1000,0022,26.9100
1988-07-24 18:00:00 UTC,2447367.250000,28.6750,-92.1000,0022,26.9570
1988-07-24 18:30:00 UTC,2447367.270833,28.6750,-92.1000,0022,27.0070
1988-07-24 19:00:00 UTC,2447367.291667,28.6750,-92.1000,0022,27.0020
1988-07-24 19:30:00 UTC,2447367.312500,28.6750,-92.1000,0022,26.8230
1988-07-24 20:00:00 UTC,2447367.333333,28.6750,-92.1000,0022,26.6270
1988-07-24 20:30:00 UTC,2447367.354167,28.6750,-92.1000,0022,26.6810
1988-07-24 21:00:00 UTC,2447367.375000,28.6750,-92.1000,0022,26.8040
1988-07-24 21:30:00 UTC,2447367.395833,28.6750,-92.1000,0022,26.8760
1988-07-24 22:00:00 UTC,2447367.416667,28.6750,-92.1000,0022,26.8690
1988-07-24 22:30:00 UTC,2447367.437500,28.6750,-92.1000,0022,26.8330
1988-07-24 23:00:00 UTC,2447367.458333,28.6750,-92.1000,0022,26.7500
1988-07-24 23:30:00 UTC,2447367.479167,28.6750,-92.1000,0022,26.6980
1988-07-25 00:00:00 UTC,2447367.500000,28.6750,-92.1000,0022,26.7380
1988-07-25 00:30:00 UTC,2447367.520833,28.6750,-92.1000,0022,26.7850
1988-07-25 01:00:00 UTC,2447367.541667,28.6750,-92.1000,0022,26.7500
1988-07-25 01:30:00 UTC,2447367.562500,28.6750,-92.1000,0022,26.9770
1988-07-25 02:00:00 UTC,2447367.583333,28.6750,-92.1000,0022,26.7170
1988-07-25 02:30:00 UTC,2447367.604167,28.6750,-92.1000,0022,26.6740
1988-07-25 03:00:00 UTC,2447367.625000,28.6750,-92.1000,0022,26.3150
1988-07-25 03:30:00 UTC,2447367.645833,28.6750,-92.1000,0022,26.2050
1988-07-25 04:00:00 UTC,2447367.666667,28.6750,-92.1000,0022,26.2530
1988-07-25 04:30:00 UTC,2447367.687500,28.6750,-92.1000,0022,26.2670
1988-07-25 05:00:00 UTC,2447367.708333,28.6750,-92.1000,0022,26.3510
1988-07-25 05:30:00 UTC,2447367.729167,28.6750,-92.1000,0022,26.3310
1988-07-25 06:00:00 UTC,2447367.750000,28.6750,-92.1000,0022,26.0840
1988-07-25 06:30:00 UTC,2447367.770833,28.6750,-92.1000,0022,26.1290
1988-07-25 07:00:00 UTC,2447367.791667,28.6750,-92.1000,0022,26.2000
1988-07-25 07:30:00 UTC,2447367.812500,28.6750,-92.1000,0022,26.1490
1988-07-25 08:00:00 UTC,2447367.833333,28.6750,-92.1000,0022,26.2770
1988-07-25 08:30:00 UTC,2447367.854167,28.6750,-92.1000,0022,26.5970
1988-07-25 09:00:00 UTC,2447367.875000,28.6750,-92.1000,0022,26.8150
1988-07-25 09:30:00 UTC,2447367.895833,28.6750,-92.1000,0022,26.8280
1988-07-25 10:00:00 UTC,2447367.916667,28.6750,-92.1000,0022,26.5100
1988-07-25 10:30:00 UTC,2447367.937500,28.6750,-92.1000,0022,26.5680
1988-07-25 11:00:00 UTC,2447367.958333,28.6750,-92.1000,0022,26.6480
1988-07-25 11:30:00 UTC,2447367.979167,28.6750,-92.1000,0022,26.6860
1988-07-25 12:00:00 UTC,2447368.000000,28.6750,-92.1000,0022,26.7340
1988-07-25 12:30:00 UTC,2447368.020833,28.6750,-92.1000,0022,26.7530
1988-07-25 13:00:00 UTC,2447368.041667,28.6750,-92.1000,0022,26.7850
1988-07-25 13:30:00 UTC,2447368.062500,28.6750,-92.1000,0022,26.8500
1988-07-25 14:00:00 UTC,2447368.083333,28.6750,-92.1000,0022,26.9270
1988-07-25 14:30:00 UTC,2447368.104167,28.6750,-92.1000,0022,26.9570
1988-07-25 15:00:00 UTC,2447368.125000,28.6750,-92.1000,0022,26.9990
1988-07-25 15:30:00 UTC,2447368.145833,28.6750,-92.1000,0022,26.9620
1988-07-25 16:00:00 UTC,2447368.166667,28.6750,-92.1000,0022,27.0360
1988-07-25 16:30:00 UTC,2447368.187500,28.6750,-92.1000,0022,27.0640
1988-07-25 17:00:00 UTC,2447368.208333,28.6750,-92.1000,0022,27.1050
1988-07-25 17:30:00 UTC,2447368.229167,28.6750,-92.1000,0022,27.1440
1988-07-25 18:00:00 UTC,2447368.250000,28.6750,-92.1000,0022,27.1910
1988-07-25 18:30:00 UTC,2447368.270833,28.6750,-92.1000,0022,27.2970
1988-07-25 19:00:00 UTC,2447368.291667,28.6750,-92.1000,0022,27.2730
1988-07-25 19:30:00 UTC,2447368.312500,28.6750,-92.1000,0022,27.2350
1988-07-25 20:00:00 UTC,2447368.333333,28.6750,-92.1000,0022,27.3470
1988-07-25 20:30:00 UTC,2447368.354167,28.6750,-92.1000,0022,27.3560
1988-07-25 21:00:00 UTC,2447368.375000,28.6750,-92.1000,0022,27.4260
1988-07-25 21:30:00 UTC,2447368.395833,28.6750,-92.1000,0022,27.4600
1988-07-25 22:00:00 UTC,2447368.416667,28.6750,-92.1000,0022,27.5270
1988-07-25 22:30:00 UTC,2447368.437500,28.6750,-92.1000,0022,27.4110
1988-07-25 23:00:00 UTC,2447368.458333,28.6750,-92.1000,0022,27.3880
1988-07-25 23:30:00 UTC,2447368.479167,28.6750,-92.1000,0022,27.3640
1988-07-26 00:00:00 UTC,2447368.500000,28.6750,-92.1000,0022,27.3190
1988-07-26 00:30:00 UTC,2447368.520833,28.6750,-92.1000,0022,27.3510
1988-07-26 01:00:00 UTC,2447368.541667,28.6750,-92.1000,0022,27.3420
1988-07-26 01:30:00 UTC,2447368.562500,28.6750,-92.1000,0022,27.3710
1988-07-26 02:00:00 UTC,2447368.583333,28.6750,-92.1000,0022,27.3320
1988-07-26 02:30:00 UTC,2447368.604167,28.6750,-92.1000,0022,27.2410
1988-07-26 03:00:00 UTC,2447368.625000,28.6750,-92.1000,0022,27.1710
1988-07-26 03:30:00 UTC,2447368.645833,28.6750,-92.1000,0022,27.0470
1988-07-26 04:00:00 UTC,2447368.666667,28.6750,-92.1000,0022,26.7860
1988-07-26 04:30:00 UTC,2447368.687500,28.6750,-92.1000,0022,26.5890
1988-07-26 05:00:00 UTC,2447368.708333,28.6750,-92.1000,0022,26.6150
1988-07-26 05:30:00 UTC,2447368.729167,28.6750,-92.1000,0022,26.5220
1988-07-26 06:00:00 UTC,2447368.750000,28.6750,-92.1000,0022,26.5060
1988-07-26 06:30:00 UTC,2447368.770833,28.6750,-92.1000,0022,26.5500
1988-07-26 07:00:00 UTC,2447368.791667,28.6750,-92.1000,0022,26.7740
1988-07-26 07:30:00 UTC,2447368.812500,28.6750,-92.1000,0022,26.6960
1988-07-26 08:00:00 UTC,2447368.833333,28.6750,-92.1000,0022,26.5850
1988-07-26 08:30:00 UTC,2447368.854167,28.6750,-92.1000,0022,26.6490
1988-07-26 09:00:00 UTC,2447368.875000,28.6750,-92.1000,0022,26.7390
1988-07-26 09:30:00 UTC,2447368.895833,28.6750,-92.1000,0022,26.8280
1988-07-26 10:00:00 UTC,2447368.916667,28.6750,-92.1000,0022,27.0340
1988-07-26 10:30:00 UTC,2447368.937500,28.6750,-92.1000,0022,27.1890
1988-07-26 11:00:00 UTC,2447368.958333,28.6750,-92.1000,0022,27.3010
1988-07-26 11:30:00 UTC,2447368.979167,28.6750,-92.1000,0022,27.3200
1988-07-26 12:00:00 UTC,2447369.000000,28.6750,-92.1000,0022,27.2880
1988-07-26 12:30:00 UTC,2447369.020833,28.6750,-92.1000,0022,27.2040
1988-07-26 13:00:00 UTC,2447369.041667,28.6750,-92.1000,0022,26.9340
1988-07-26 13:30:00 UTC,2447369.062500,28.6750,-92.1000,0022,26.9850
1988-07-26 14:00:00 UTC,2447369.083333,28.6750,-92.1000,0022,27.0130
1988-07-26 14:30:00 UTC,2447369.104167,28.6750,-92.1000,0022,27.0310
1988-07-26 15:00:00 UTC,2447369.125000,28.6750,-92.1000,0022,27.0760
1988-07-26 15:30:00 UTC,2447369.145833,28.6750,-92.1000,0022,27.2370
1988-07-26 16:00:00 UTC,2447369.166667,28.6750,-92.1000,0022,27.2050
1988-07-26 16:30:00 UTC,2447369.187500,28.6750,-92.1000,0022,27.2920
1988-07-26 17:00:00 UTC,2447369.208333,28.6750,-92.1000,0022,27.2640
1988-07-26 17:30:00 UTC,2447369.229167,28.6750,-92.1000,0022,27.3600
1988-07-26 18:00:00 UTC,2447369.250000,28.6750,-92.1000,0022,27.3900
1988-07-26 18:30:00 UTC,2447369.270833,28.6750,-92.1000,0022,27.3710
1988-07-26 19:00:00 UTC,2447369.291667,28.6750,-92.1000,0022,27.4040
1988-07-26 19:30:00 UTC,2447369.312500,28.6750,-92.1000,0022,27.4230
1988-07-26 20:00:00 UTC,2447369.333333,28.6750,-92.1000,0022,27.4160
1988-07-26 20:30:00 UTC,2447369.354167,28.6750,-92.1000,0022,27.3370
1988-07-26 21:00:00 UTC,2447369.375000,28.6750,-92.1000,0022,27.2590
1988-07-26 21:30:00 UTC,2447369.395833,28.6750,-92.1000,0022,27.3510
1988-07-26 22:00:00 UTC,2447369.416667,28.6750,-92.1000,0022,27.4430
1988-07-26 22:30:00 UTC,2447369.437500,28.6750,-92.1000,0022,27.5530
1988-07-26 23:00:00 UTC,2447369.458333,28.6750,-92.1000,0022,27.6270
1988-07-26 23:30:00 UTC,2447369.479167,28.6750,-92.1000,0022,27.6560
1988-07-27 00:00:00 UTC,2447369.500000,28.6750,-92.1000,0022,27.7040
1988-07-27 00:30:00 UTC,2447369.520833,28.6750,-92.1000,0022,27.6980
1988-07-27 01:00:00 UTC,2447369.541667,28.6750,-92.1000,0022,27.6680
1988-07-27 01:30:00 UTC,2447369.562500,28.6750,-92.1000,0022,27.6300
1988-07-27 02:00:00 UTC,2447369.583333,28.6750,-92.1000,0022,27.5360
1988-07-27 02:30:00 UTC,2447369.604167,28.6750,-92.1000,0022,27.5580
1988-07-27 03:00:00 UTC,2447369.625000,28.6750,-92.1000,0022,27.5060
1988-07-27 03:30:00 UTC,2447369.645833,28.6750,-92.1000,0022,27.4740
1988-07-27 04:00:00 UTC,2447369.666667,28.6750,-92.1000,0022,27.3780
1988-07-27 04:30:00 UTC,2447369.687500,28.6750,-92.1000,0022,27.1640
1988-07-27 05:00:00 UTC,2447369.708333,28.6750,-92.1000,0022,26.7650
1988-07-27 05:30:00 UTC,2447369.729167,28.6750,-92.1000,0022,26.9240
1988-07-27 06:00:00 UTC,2447369.750000,28.6750,-92.1000,0022,27.2540
1988-07-27 06:30:00 UTC,2447369.770833,28.6750,-92.1000,0022,27.2620
1988-07-27 07:00:00 UTC,2447369.791667,28.6750,-92.1000,0022,27.3250
1988-07-27 07:30:00 UTC,2447369.812500,28.6750,-92.1000,0022,27.4980
1988-07-27 08:00:00 UTC,2447369.833333,28.6750,-92.1000,0022,27.5630
1988-07-27 08:30:00 UTC,2447369.854167,28.6750,-92.1000,0022,27.5270
1988-07-27 09:00:00 UTC,2447369.875000,28.6750,-92.1000,0022,27.5040
1988-07-27 09:30:00 UTC,2447369.895833,28.6750,-92.1000,0022,27.4670
1988-07-27 10:00:00 UTC,2447369.916667,28.6750,-92.1000,0022,27.5170
1988-07-27 10:30:00 UTC,2447369.937500,28.6750,-92.1000,0022,27.2740
1988-07-27 11:00:00 UTC,2447369.958333,28.6750,-92.1000,0022,27.2050
1988-07-27 11:30:00 UTC,2447369.979167,28.6750,-92.1000,0022,26.9730
1988-07-27 12:00:00 UTC,2447370.000000,28.6750,-92.1000,0022,27.0660
1988-07-27 12:30:00 UTC,2447370.020833,28.6750,-92.1000,0022,26.9450
1988-07-27 13:00:00 UTC,2447370.041667,28.6750,-92.1000,0022,27.0080
1988-07-27 13:30:00 UTC,2447370.062500,28.6750,-92.1000,0022,27.0780
1988-07-27 14:00:00 UTC,2447370.083333,28.6750,-92.1000,0022,27.1690
1988-07-27 14:30:00 UTC,2447370.104167,28.6750,-92.1000,0022,27.3140
1988-07-27 15:00:00 UTC,2447370.125000,28.6750,-92.1000,0022,27.1970
1988-07-27 15:30:00 UTC,2447370.145833,28.6750,-92.1000,0022,27.1090
1988-07-27 16:00:00 UTC,2447370.166667,28.6750,-92.1000,0022,27.0610
1988-07-27 16:30:00 UTC,2447370.187500,28.6750,-92.1000,0022,27.1210
1988-07-27 17:00:00 UTC,2447370.208333,28.6750,-92.1000,0022,27.1030
1988-07-27 17:30:00 UTC,2447370.229167,28.6750,-92.1000,0022,27.1810
1988-07-27 18:00:00 UTC,2447370.250000,28.6750,-92.1000,0022,27.2550
1988-07-27 18:30:00 UTC,2447370.270833,28.6750,-92.1000,0022,27.2500
1988-07-27 19:00:00 UTC,2447370.291667,28.6750,-92.1000,0022,27.2920
1988-07-27 19:30:00 UTC,2447370.312500,28.6750,-92.1000,0022,27.4070
1988-07-27 20:00:00 UTC,2447370.333333,28.6750,-92.1000,0022,27.4040
1988-07-27 20:30:00 UTC,2447370.354167,28.6750,-92.1000,0022,27.4510
1988-07-27 21:00:00 UTC,2447370.375000,28.6750,-92.1000,0022,27.4180
1988-07-27 21:30:00 UTC,2447370.395833,28.6750,-92.1000,0022,27.3930
1988-07-27 22:00:00 UTC,2447370.416667,28.6750,-92.1000,0022,27.3000
1988-07-27 22:30:00 UTC,2447370.437500,28.6750,-92.1000,0022,27.2590
1988-07-27 23:00:00 UTC,2447370.458333,28.6750,-92.1000,0022,27.2960
1988-07-27 23:30:00 UTC,2447370.479167,28.6750,-92.1000,0022,27.3440
1988-07-28 00:00:00 UTC,2447370.500000,28.6750,-92.1000,0022,27.3510
1988-07-28 00:30:00 UTC,2447370.520833,28.6750,-92.1000,0022,27.3340
1988-07-28 01:00:00 UTC,2447370.541667,28.6750,-92.1000,0022,27.2790
1988-07-28 01:30:00 UTC,2447370.562500,28.6750,-92.1000,0022,27.3260
1988-07-28 02:00:00 UTC,2447370.583333,28.6750,-92.1000,0022,27.3340
1988-07-28 02:30:00 UTC,2447370.604167,28.6750,-92.1000,0022,27.2190
1988-07-28 03:00:00 UTC,2447370.625000,28.6750,-92.1000,0022,27.1760
1988-07-28 03:30:00 UTC,2447370.645833,28.6750,-92.1000,0022,27.1440
1988-07-28 04:00:00 UTC,2447370.666667,28.6750,-92.1000,0022,27.0850
1988-07-28 04:30:00 UTC,2447370.687500,28.6750,-92.1000,0022,27.0680
1988-07-28 05:00:00 UTC,2447370.708333,28.6750,-92.1000,0022,27.0750
1988-07-28 05:30:00 UTC,2447370.729167,28.6750,-92.1000,0022,27.1470
1988-07-28 06:00:00 UTC,2447370.750000,28.6750,-92.1000,0022,27.1730
1988-07-28 06:30:00 UTC,2447370.770833,28.6750,-92.1000,0022,27.2080
1988-07-28 07:00:00 UTC,2447370.791667,28.6750,-92.1000,0022,27.2860
1988-07-28 07:30:00 UTC,2447370.812500,28.6750,-92.1000,0022,27.2790
1988-07-28 08:00:00 UTC,2447370.833333,28.6750,-92.1000,0022,27.2370
1988-07-28 08:30:00 UTC,2447370.854167,28.6750,-92.1000,0022,27.2440
1988-07-28 09:00:00 UTC,2447370.875000,28.6750,-92.1000,0022,27.7010
1988-07-28 09:30:00 UTC,2447370.895833,28.6750,-92.1000,0022,27.6730
1988-07-28 10:00:00 UTC,2447370.916667,28.6750,-92.1000,0022,27.6310
1988-07-28 10:30:00 UTC,2447370.937500,28.6750,-92.1000,0022,27.3050
1988-07-28 11:00:00 UTC,2447370.958333,28.6750,-92.1000,0022,27.0120
1988-07-28 11:30:00 UTC,2447370.979167,28.6750,-92.1000,0022,27.0230
1988-07-28 12:00:00 UTC,2447371.000000,28.6750,-92.1000,0022,26.9090
1988-07-28 12:30:00 UTC,2447371.020833,28.6750,-92.1000,0022,26.8690
1988-07-28 13:00:00 UTC,2447371.041667,28.6750,-92.1000,0022,26.8890
1988-07-28 13:30:00 UTC,2447371.062500,28.6750,-92.1000,0022,26.9000
1988-07-28 14:00:00 UTC,2447371.083333,28.6750,-92.1000,0022,27.0420
1988-07-28 14:30:00 UTC,2447371.104167,28.6750,-92.1000,0022,27.0760
1988-07-28 15:00:00 UTC,2447371.125000,28.6750,-92.1000,0022,27.1240
1988-07-28 15:30:00 UTC,2447371.145833,28.6750,-92.1000,0022,27.1460
1988-07-28 16:00:00 UTC,2447371.166667,28.6750,-92.1000,0022,27.2050
1988-07-28 16:30:00 UTC,2447371.187500,28.6750,-92.1000,0022,27.1940
1988-07-28 17:00:00 UTC,2447371.208333,28.6750,-92.1000,0022,27.1400
1988-07-28 17:30:00 UTC,2447371.229167,28.6750,-92.1000,0022,27.2080
1988-07-28 18:00:00 UTC,2447371.250000,28.6750,-92.1000,0022,27.2660
1988-07-28 18:30:00 UTC,2447371.270833,28.6750,-92.1000,0022,27.2940
1988-07-28 19:00:00 UTC,2447371.291667,28.6750,-92.1000,0022,27.3240
1988-07-28 19:30:00 UTC,2447371.312500,28.6750,-92.1000,0022,27.3380
1988-07-28 20:00:00 UTC,2447371.333333,28.6750,-92.1000,0022,27.3510
1988-07-28 20:30:00 UTC,2447371.354167,28.6750,-92.1000,0022,27.5720
1988-07-28 21:00:00 UTC,2447371.375000,28.6750,-92.1000,0022,27.8100
1988-07-28 21:30:00 UTC,2447371.395833,28.6750,-92.1000,0022,27.8550
1988-07-28 22:00:00 UTC,2447371.416667,28.6750,-92.1000,0022,27.8980
1988-07-28 22:30:00 UTC,2447371.437500,28.6750,-92.1000,0022,27.9660
1988-07-28 23:00:00 UTC,2447371.458333,28.6750,-92.1000,0022,27.9810
1988-07-28 23:30:00 UTC,2447371.479167,28.6750,-92.1000,0022,27.9840
1988-07-29 00:00:00 UTC,2447371.500000,28.6750,-92.1000,0022,27.9940
1988-07-29 00:30:00 UTC,2447371.520833,28.6750,-92.1000,0022,27.8780
1988-07-29 01:00:00 UTC,2447371.541667,28.6750,-92.1000,0022,27.7720
1988-07-29 01:30:00 UTC,2447371.562500,28.6750,-92.1000,0022,27.6260
1988-07-29 02:00:00 UTC,2447371.583333,28.6750,-92.1000,0022,27.6290
1988-07-29 02:30:00 UTC,2447371.604167,28.6750,-92.1000,0022,27.7730
1988-07-29 03:00:00 UTC,2447371.625000,28.6750,-92.1000,0022,27.8310
1988-07-29 03:30:00 UTC,2447371.645833,28.6750,-92.1000,0022,27.8880
1988-07-29 04:00:00 UTC,2447371.666667,28.6750,-92.1000,0022,27.8200
1988-07-29 04:30:00 UTC,2447371.687500,28.6750,-92.1000,0022,27.8450
1988-07-29 05:00:00 UTC,2447371.708333,28.6750,-92.1000,0022,27.6720
1988-07-29 05:30:00 UTC,2447371.729167,28.6750,-92.1000,0022,27.4270
1988-07-29 06:00:00 UTC,2447371.750000,28.6750,-92.1000,0022,27.3420
1988-07-29 06:30:00 UTC,2447371.770833,28.6750,-92.1000,0022,27.3140
1988-07-29 07:00:00 UTC,2447371.791667,28.6750,-92.1000,0022,27.2960
1988-07-29 07:30:00 UTC,2447371.812500,28.6750,-92.1000,0022,27.3950
1988-07-29 08:00:00 UTC,2447371.833333,28.6750,-92.1000,0022,27.3710
1988-07-29 08:30:00 UTC,2447371.854167,28.6750,-92.1000,0022,27.3900
1988-07-29 09:00:00 UTC,2447371.875000,28.6750,-92.1000,0022,27.3430